Overview Statistics Trail Chart Weather Telemetry Raw packets
 

This is the latest recevied weather packets stored in our database for station/object KB1ZFK. If no packets are shown the sender has not sent any weather packets the latest 10 day(s).

<< 9 10 11 12 13 14 15 >>
Time Temp. Humidity Pressure Rain* Wind** Luminosity Snow
1788561205 22.22° C 73% 1009.5 hPa 0 mm - 15 W/m² -
1788560902 22.22° C 72% 1009.6 hPa 0 mm - 16 W/m² -
1788560602 22.22° C 72% 1009.4 hPa 0 mm - 11 W/m² -
1788560302 22.78° C 72% 1009.3 hPa 0 mm - 16 W/m² -
1788560002 22.78° C 71% 1009.3 hPa 0 mm - 16 W/m² -
1788559698 23.33° C 69% 1009.3 hPa 0 mm - 20 W/m² -
1788559397 23.33° C 68% 1009.4 hPa 0 mm - 21 W/m² -
1788559092 23.33° C 66% 1009.3 hPa 0 mm - 32 W/m² -
1788558787 23.33° C 65% 1009.4 hPa 0 mm - 48 W/m² -
1788558483 23.33° C 66% 1009.1 hPa 0 mm - 43 W/m² -
1788558179 23.89° C 68% 1009.4 hPa 0 mm - 38 W/m² -
1788557876 23.89° C 64% 1009.3 hPa 0 mm - 43 W/m² -
1788557572 23.89° C 63% 1009.3 hPa 0 mm - 48 W/m² -
1788557268 23.89° C 63% 1009.2 hPa 0 mm - 39 W/m² -
1788556968 23.89° C 65% 1009.3 hPa 0 mm - 37 W/m² -
1788556663 24.44° C 64% 1009.3 hPa 0 mm - 38 W/m² -
1788556358 25° C 64% 1009.2 hPa 0 mm - 41 W/m² -
1788556053 24.44° C 64% 1009.1 hPa 0 mm - 62 W/m² -
1788555747 24.44° C 62% 1009.3 hPa 0 mm - 79 W/m² -
1788555444 23.89° C 60% 1009.2 hPa 0 mm - 42 W/m² -
1788555140 23.89° C 63% 1009.1 hPa 0 mm - 61 W/m² -
1788554843 23.89° C 67% 1009.1 hPa 0 mm - 65 W/m² -
1788554532 23.89° C 67% 1009.1 hPa 0 mm - 60 W/m² -
1788554228 24.44° C 68% 1009.2 hPa 0 mm - 68 W/m² -
1788553924 23.89° C 65% 1009 hPa 0 mm - 57 W/m² -

* Rain latest hour (hover to see other rain measurements)
** Current wind speed in m/s (hover to see current wind gust speed)